Погода в Шумилино

Беларусь     55°17′56″N   29°37′01″E
темп.,
°C
ветер,
м/с
пор.,
м/с
влажн.,
%
обл.,
%
осадки,
мм/ч
давл.,
гПа
погр.,
м
20 января, ср
ср2000:00−16ю229759 0.0 101920
03:00−17ю239760 0.0 102025
06:00−17ююв3398100 0.0 101951
09:00−18ююв339790 0.1 102059
12:00−15ююв479458 0.0 1019250
15:00−13ююв489365 0.0 1018290
18:00−14ююв4109382 0.0 1017265
21:00−13ююв6129291 0.0 1016372
21 января, чт
чт2100:00−11ююв61294100 0.2 1014418
03:00−9ю61294100 0.9 1012467
06:00−7ю51295100 1.5 1010457
09:00−6ююз51095100 2.3 1009426
12:00−1ю599799 0.9 1008393
15:00+1ююз4996100 1.1 1008417
18:00+1ююз51094100 0.0 1008424
21:00+1ююз41095100 0.0 1008404
22 января, пт
пт2200:00+1ююз5995100 0.0 1007384
03:00+1ююз5996100 0.0 1007381
06:00+1ююз51095100 0.0 1007444
09:00−1ю51195100 0.0 1006472
12:000ю51096100 0.0 1006454
15:00+1ю410100100 0.0 1005387
18:00+1ю41198100 0.0 1003392
21:00+1ю51197100 0.0 1003467
23 января, сб
сб2300:00+1ю51198100 0.0 1002369
03:00+1ю51297100 0.0 1002433
06:00+1ююз51098100 0.1 1002327
09:00+1ю4998100 0.1 1003273
12:00+1ю48100100 0.0 1004255
15:00+1ю4810097 0.0 1004251
18:00+2ююв4899100 0.0 1003214
21:00+2ююв51099100 0.0 1003269
24 января, вс
вс2400:00+1ююв61298100 0.0 1002389
03:00+1ююв61292100 0.0 1002438
06:00+1ююв51098100 0.1 1000432
09:00+1ююв61198100 0.1 1000483
12:00+2ююв512100100 0.6 999442
15:00+2юв410100100 1.5 998281
18:00+2юв51299100 0.6 996329
21:00+2юв51299100 2.5 994345